Find Starlink 31384

NORAD ID: 58983 Int'l Des: 2024-031 Owner: SPXS Country: US Constellation: starlink operational
LEOCIRCULAR

实时位置

正在加载3D地球...

关于 Starlink 31384

正在加载描述...

即将过境

Passes for default location (London). Set your location on the main map for personalized predictions.

高度历史

Loading altitude history...

两行轨道根数

1 58983U 24031U 26125.50001156 .00032614 00000-0 97416-3 0 9993
2 58983 53.1608 32.9584 0000767 92.4337 102.2578 15.34336539 5807
Epoch: May 5, 2026 • Age: 9 hours

当前状态

高度 468.4 km
速度 7.64 km/s
星下点 51.11°N, 34.8°W
发射日期 Feb 15, 2024
运行时间 2.2 years
类型 internet

技术详情

分类 Payload
质量 730.00 kg
干质量 700.00 kg
总质量 730.00 kg
长度 0.30 m
直径 4.10 m
跨度 29.00 m
形状 Box + pan
制造商 SPXS
平台类型 Starlink V2M
阶段状态 In Orbit
所有者/国家 SPXS/US

Most Searched